Location: Castelbiague
(43.0361°N, 0.9246°E)
Time: 13:36:09
(UTC+00:00)

SL-14 R/B - Pass Details

Date: 17 June 2021
Orbit: 518 x 554 km, 82.4° (Epoch: 04 August)

Event Time Altitude Azimuth Distance (km) Brightness Sun altitude
Exits shadow 21:07:15 20° 126° (SE) 1,321 4.7 -12.9°
Maximum altitude 21:08:53 26° 90° (E) 1,120 4.5 -13.1°
Drops below altitude 10° 21:12:15 10° 33° (NNE) 1,839 6.2 -13.5°
Sets 21:14:40 0° 21° (NNE) 2,734 7.3 -13.7°
